Retour au catalogue

SL-12 DEB

LostHEO
NORAD 26849·DEBRIS·🇷🇺 Russia

Lancé Dec 24, 1985 depuis Baikonur Cosmodrome

Loading…

Prochains Passages (prochaines 24 heures)

TLE

PériméSource: Space-Track

Époque: Oct 27, 2025, 08:40 UTC

1 26849U 85118AC  25300.36177660 -.00000027  00000-0  00000-0 0  9998
2 26849  60.9146  31.2587 4142586  78.7309 357.8574  5.16634789  2535

Suivez SL-12 DEB en temps réel avec AllMySat

Download on the App Store